Weather History for Naples, FL

Change the Weather History Date:

Friday, November 30, 2012

  Actual Average Record
Temperature  
Mean Temperature 72 °F 69 °F  
Max Temperature 80 °F 79 °F 88 °F (1982)
Min Temperature 63 °F 60 °F 34 °F (1959)
Degree Days  
Heating Degree Days 0 1  
Month to date heating degree days 12 11  
Since 1 July heating degree days 13 14  
Cooling Degree Days 7 5  
Month to date cooling degree days 125 224  
Year to date cooling degree days 3966 3819  
Growing Degree Days 22 (Base 50)    
Moisture  
Dew Point 61 °F    
Average Humidity 74    
Maximum Humidity 93    
Minimum Humidity 54    
Precipitation  
Precipitation 0.00 in 0.07 in 1.38 in (1974)
Month to date precipitation 0.12 2.04  
Year to date precipitation 36.15 50.44  
Snow  
Snow 0.00 in - - ()
Month to date snowfall 0.0  
Since 1 July snowfall 0.0  
Since 1 September snowfall 0.0  
Snow Depth 0.00 in    
Sea Level Pressure  
Sea Level Pressure 30.16 in    
Wind  
Wind Speed 10 mph (ENE)    
Max Wind Speed 21 mph    
Max Gust Speed 24 mph    
Visibility 10 miles    
Events      
T = Trace of Precipitation, MM = Missing Value Source: NWS Daily Summary

Daily Weather History Graph

Daily Weather History Graph

Search for Another Location

Airport:

Trip Planner

Search our weather history database for the weather conditions in past years. The results will help you decide how hot, cold, wet, or windy it might be!

Date:

Astronomy

Nov. 30, 2012 Rise Set
Actual Time 6:57 AM EST 5:34 PM EST
Civil Twilight 6:32 AM EST 5:59 PM EST
Nautical Twilight 6:03 AM EST 6:28 PM EST
Astronomical Twilight 5:35 AM EST 6:56 PM EST
Moon 7:27 PM EST (11/30) 8:28 AM EST (11/30)
Length of Visible Light 11h 27m
Length of Day
10h 37m
Waning Gibbous, 96% of the Moon is Illuminated
Nov 30
Waning Gibbous
Dec 6
Last Quarter
Dec 13
New
Dec 20
First Quarter
Dec 28
Full

Hourly Weather History & Observations

Time (EST) Temp. Heat Index Dew Point Humidity Pressure Visibility Wind Dir Wind Speed Gust Speed Precip Events Conditions
12:53 AM 64.0 °F - 61.0 °F 90% 30.18 in 10.0 mi NE 10.4 mph - N/A   Clear
1:53 AM 63.0 °F - 61.0 °F 93% 30.16 in 10.0 mi NE 8.1 mph - N/A   Clear
2:53 AM 63.0 °F - 61.0 °F 93% 30.17 in 10.0 mi NE 5.8 mph - N/A   Clear
3:53 AM 63.0 °F - 61.0 °F 93% 30.17 in 10.0 mi NE 8.1 mph - N/A   Clear
4:53 AM 63.0 °F - 60.1 °F 90% 30.15 in 10.0 mi NE 8.1 mph - N/A   Scattered Clouds
5:53 AM 63.0 °F - 60.1 °F 90% 30.16 in 10.0 mi NE 8.1 mph - N/A   Clear
6:53 AM 63.0 °F - 60.1 °F 90% 30.18 in 10.0 mi NE 9.2 mph - N/A   Partly Cloudy
7:53 AM 64.0 °F - 61.0 °F 90% 30.19 in 9.0 mi NE 9.2 mph - N/A   Overcast
8:53 AM 70.0 °F - 61.0 °F 73% 30.20 in 10.0 mi ENE 12.7 mph - N/A   Mostly Cloudy
9:53 AM 73.9 °F - 61.0 °F 64% 30.21 in 10.0 mi ENE 12.7 mph 23.0 mph N/A   Mostly Cloudy
10:53 AM 75.9 °F - 61.0 °F 60% 30.20 in 10.0 mi East 11.5 mph - N/A   Partly Cloudy
11:53 AM 75.9 °F - 61.0 °F 60% 30.17 in 10.0 mi East 13.8 mph - N/A   Partly Cloudy
12:53 PM 80.1 °F 81.5 °F 63.0 °F 56% 30.14 in 10.0 mi East 16.1 mph - N/A   Partly Cloudy
1:53 PM 77.0 °F - 61.0 °F 58% 30.13 in 10.0 mi East 10.4 mph - N/A   Mostly Cloudy
2:53 PM 77.0 °F - 61.0 °F 58% 30.12 in 10.0 mi East 15.0 mph - N/A   Mostly Cloudy
3:53 PM 75.0 °F - 61.0 °F 62% 30.12 in 10.0 mi ENE 12.7 mph - N/A   Scattered Clouds
4:53 PM 73.0 °F - 61.0 °F 66% 30.14 in 10.0 mi East 9.2 mph - N/A   Scattered Clouds
5:53 PM 72.0 °F - 61.0 °F 68% 30.14 in 10.0 mi East 8.1 mph - N/A   Clear
6:53 PM 70.0 °F - 61.0 °F 73% 30.14 in 10.0 mi ENE 8.1 mph - N/A   Clear
7:53 PM 69.1 °F - 61.0 °F 75% 30.16 in 10.0 mi NE 6.9 mph - N/A   Clear
8:53 PM 66.9 °F - 61.0 °F 81% 30.17 in 10.0 mi NE 6.9 mph - N/A   Clear
9:53 PM 66.9 °F - 60.1 °F 79% 30.17 in 10.0 mi NE 5.8 mph - N/A   Clear
10:53 PM 64.9 °F - 60.1 °F 84% 30.18 in 10.0 mi ENE 5.8 mph - N/A   Clear
11:53 PM 64.0 °F - 60.1 °F 87% 30.16 in 10.0 mi NE 6.9 mph - N/A   Clear